Location: Castelbiague
(43.0361°N, 0.9246°E)
Time: 16:03:51
(UTC+00:00)

GEOS 3 Rocket - Pass Details

Date: 17 June 2021
Orbit: 780 x 839 km, 115.0° (Epoch: 30 July)

Event Time Altitude Azimuth Distance (km) Brightness Sun altitude
Exits shadow 23:52:24 36° 237° (WSW) 1,295 4.4 -23.5°
Maximum altitude 23:52:32 36° 241° (WSW) 1,293 4.4 -23.5°
Drops below altitude 10° 23:57:27 10° 307° (NW) 2,455 6.6 -23.6°
Sets 23:59:58 0° 316° (NW) 3,388 7.5 -23.6°
